STARLINK-33786, 63514

Orbit data source: Space-Track

STARLINK-33786, 63514 is a payload satellite owned by SpaceX/Seattle (US) in LEO that was launched on Mon, 07 Apr 2025 UTC via an FALCON 9 launch vehicle from the Air Force Western Test Range (AFWTR). Payload-class satellites include a variety of spacecraft equipped with specific instruments for various scientific and technological missions. These include communications satellites like Starlink; space stations such as the ISS; scientific satellites like the Hubble; Earth observation satellites from companies like Planet Labs, Umbra, and HawkEye 360; GPS; miniature CubeSats for education and research; and military/defense satellites.

Loading next visibility...
Identifier
63514, 2025-071X
Orbit
LEO
Country
Flag of USUS
Related business
Manufacturer
SpaceX/Seattle
Mission
Operational Commercial Communications
Bus & Motor
STARLINK V2MO, Unknown motor
Mass
575 kg wet, ~530 kg dry
Launch date (UTC)
2025-04-07 (1 year ago)
Launch vehicle
FALCON 9
Launch site
Air Force Western Test Range (AFWTR)
Object type
Payload
Rocket body
Debris
Shape & HBR
Box + 2 Pan, 17.7 m
Radar Cross Section
36.964 m², Large (>1 m²)

Expand to show TLE details & history
Last TLE update: 5 hours ago

TLE from 5 hours ago
0 STARLINK-33786
1 63514U 25071X   26174.94280926  .00024204  00000-0  82619-3 0  9995
2 63514  53.1603   6.6355 0000823  88.3561 271.7534 15.30218867 68653
Epoch: 2026-06-23T22:37Z
TLE epoch observation values (Epoch: 2026-06-23T22:37:38.720Z)
Latitude
-0°
Longitude
115.11703°
Altitude
476.041 km
Speed
7.629 km/s
True Right ascension
00h 26m 32s
True Declination
0° 00' 00"
Sunlit
Object was in daylight at epoch
Visualization orbit readout
Latitude
Unknown
Longitude
Unknown
Altitude
Unknown
Speed
Unknown
Apparent Right ascension
Unknown
Apparent Declination
Unknown
Sunlit
N/A
Visualization observer readout
Local Sidereal Time
15:01:34
Azimuth
Unknown
Elevation
Unknown
Doppler factor
Unknown
Orbital elements
Apogee altitude
475.979 km
Perigee altitude
474.851 km
Semi-major axis
6,853.552 km
Eccentricity
0.00008
Inclination
53.1603°
RAAN
6.6355°
Arg. of periapsis
88.3561°
True anomaly
271.74397°
Mean anomaly
271.7534°
Eccentric anomaly
271.74869°
Mean motion
3.82534 °/min
Orbital period
94.11 mins
BSTAR
0.00082619
Loading maneuver chart data...
Computing Atmospheric mass density...
Loading historical data...
Loading historical data...
Loading historical data...
Loading historical data...
Loading historical data...
Loading historical data...
Loading historical data...

Documentation

Showing up to 5 results
|